Theta_e
347 350 350 345 345 343 343 341 341 339 348 352 353 356 354 348 345 342 342 343 344 345 345 346 345 344 337 337 333 341 343 343 344 344 345 344 343 342 340 343 345 346 346 347
346 348 343 345 342 343 343 342 340 339 347 351 355 356 354 350 348 345 342 342 343 343 343 344 345 343 343 344 343 342 343 342 341 342 342 343 340 339 335 342 347 347 347 347
346 343 339 339 339 337 337 338 339 343 351 351 354 358 357 352 351 347 343 342 342 342 342 342 343 343 342 344 344 344 341 339 338 342 343 342 336 338 333 342 346 346 345 346
343 339 335 334 333 332 331 332 338 346 351 353 351 353 357 355 354 351 349 343 341 341 341 342 342 342 341 342 342 341 339 338 338 339 338 340 340 341 339 343 345 346 346 347
337 334 335 336 335 330 334 335 339 349 350 354 355 355 352 353 356 354 350 348 343 341 341 340 341 342 342 341 341 341 340 338 338 335 337 339 341 342 338 344 344 345 346 347
338 336 335 337 332 329 338 343 343 346 350 352 349 355 354 356 354 353 350 349 348 344 341 340 339 340 340 340 340 340 339 338 338 336 340 339 339 338 337 334 338 343 345 345
330 330 329 329 330 327 336 342 345 347 352 347 340 354 348 347 349 350 350 349 348 347 345 344 342 339 338 339 339 338 338 339 338 338 340 339 339 337 338 338 334 336 345 347
332 333 329 327 330 331 333 332 332 336 339 338 341 349 347 342 340 346 348 349 348 348 347 346 345 342 340 339 339 338 337 337 338 337 339 340 340 340 340 340 339 332 335 338
333 331 328 327 328 328 328 330 328 334 337 345 345 344 340 339 342 343 345 348 348 348 348 348 347 345 344 343 341 341 341 340 338 338 339 339 340 340 340 340 336 332 329 333
330 331 329 327 328 326 328 328 333 339 343 343 341 344 343 345 344 344 346 345 346 348 348 347 347 347 346 346 345 345 344 344 342 341 340 339 338 337 337 337 337 332 332 334
329 330 332 331 332 333 329 331 330 337 339 338 337 336 340 342 344 343 345 347 348 348 348 348 347 347 347 347 346 346 346 345 344 343 342 340 338 339 341 340 335 338 343 342
330 331 333 331 329 328 331 332 331 333 336 340 339 337 337 340 337 341 344 345 347 348 349 349 348 347 347 348 348 347 347 347 346 344 343 342 342 342 339 337 340 343 343 342
326 332 332 331 330 329 333 327 325 334 339 345 339 333 339 341 342 342 342 343 344 346 346 346 347 347 348 348 349 348 348 345 345 347 345 342 338 338 339 340 340 341 342 345
325 327 331 332 335 331 334 329 332 331 336 340 340 336 340 342 342 341 340 340 341 341 344 346 346 346 345 347 348 347 344 341 346 345 347 344 342 342 342 343 342 346 348 349
327 331 329 330 328 329 331 332 329 333 332 333 333 337 337 342 342 340 339 340 341 342 343 344 345 344 343 345 345 346 347 348 345 345 346 346 345 343 344 347 349 350 350 350
326 334 329 331 327 328 329 330 330 329 327 333 332 333 335 337 340 341 340 343 344 345 342 343 344 345 347 346 346 346 345 345 345 345 346 347 348 349 351 351 352 351 351 351
329 329 332 333 328 330 331 331 330 330 329 332 334 333 337 338 340 341 342 345 347 348 350 349 349 348 346 345 345 345 347 347 348 348 348 350 351 352 352 352 352 353 353 351
332 330 329 335 332 334 332 328 329 330 329 331 334 333 337 338 339 340 341 344 350 351 351 350 349 347 346 347 349 349 348 348 350 351 352 353 351 347 344 343 342 346 345 342
327 330 334 335 334 332 332 333 335 333 333 333 334 334 337 336 337 338 339 343 348 348 349 350 351 350 351 351 349 348 349 352 352 350 347 338 330 327 326 324 324 323 321 321
327 328 335 332 335 334 334 333 332 333 334 331 332 333 337 338 341 341 337 342 349 347 347 349 349 348 348 349 349 351 351 350 345 332 325 322 321 320 319 319 320 321 322 324
332 332 335 335 335 333 332 331 330 335 338 330 331 331 331 340 338 334 337 341 347 348 347 347 346 347 349 351 351 349 342 331 325 322 320 320 320 320 320 322 325 326 326 327
333 334 333 333 334 334 328 332 336 332 330 330 330 330 332 332 334 336 338 340 341 349 349 348 348 348 350 352 344 334 327 324 322 320 320 321 322 324 326 326 326 324 322 321
332 326 332 330 333 326 324 323 324 326 328 329 330 329 333 335 334 337 337 341 342 344 350 349 349 350 352 348 337 328 324 322 321 319 320 323 326 327 327 327 325 323 322 322
324 319 330 331 325 321 320 319 319 322 323 325 326 328 332 337 335 338 339 345 347 341 350 350 350 351 349 341 331 326 323 323 320 320 323 326 327 328 328 327 325 324 324 324
316 317 323 324 324 321 321 320 318 319 320 320 322 324 329 334 339 339 342 346 347 346 350 351 351 351 343 336 330 326 324 322 319 323 326 329 329 328 328 327 325 324 325 323
313 314 316 320 318 318 319 317 318 320 321 321 322 322 325 331 335 341 344 344 346 346 350 352 352 347 340 336 330 326 324 320 321 324 328 329 328 328 328 327 324 325 323 321
Wind_Speed
1 4 9 8 4 5 5 7 7 3 6 6 5 8 14 15 13 15 19 21 22 24 23 24 27 26 25 24 25 23 19 18 16 14 12 10 9 8 8 7 3 1 1 3
3 7 12 5 7 8 8 8 5 3 7 6 6 9 12 16 16 17 21 23 24 22 21 24 28 28 27 26 24 24 20 18 15 14 11 8 8 10 9 8 6 5 4 6
8 9 7 4 10 6 4 5 3 3 6 4 9 6 11 12 12 15 18 21 23 26 26 25 25 27 30 30 27 25 22 18 17 15 13 11 9 8 10 11 8 6 6 6
9 8 3 2 8 3 5 5 5 9 8 1 4 1 10 12 15 16 20 21 24 27 28 28 27 25 29 30 29 26 21 19 19 18 16 14 14 11 9 10 9 9 8 8
4 5 11 13 6 4 4 7 7 9 5 2 5 4 5 12 14 18 21 23 25 26 29 31 31 30 29 31 29 28 25 22 23 21 19 18 16 15 9 9 9 11 12 10
14 9 8 6 2 4 13 12 10 5 1 4 1 5 4 8 17 15 21 24 25 25 26 27 29 31 31 31 33 34 32 30 25 25 23 23 18 14 11 9 9 9 11 11
5 10 5 6 6 6 4 7 3 2 3 3 1 6 9 8 8 13 21 24 24 24 25 27 27 28 29 30 31 31 34 34 29 27 24 24 21 17 15 11 11 9 10 10
4 2 3 5 4 4 12 4 3 2 3 1 3 5 0 2 5 10 19 24 23 24 25 25 27 28 30 33 31 30 30 31 30 29 28 26 25 24 22 20 17 15 12 13
3 5 3 3 3 3 6 5 2 6 1 3 1 4 8 7 7 11 16 20 25 27 28 28 26 27 28 30 30 29 29 29 30 31 30 29 27 27 27 24 20 19 19 16
2 4 1 2 3 6 3 7 3 2 2 3 2 5 5 3 10 12 14 19 23 25 26 26 26 26 27 26 25 24 25 25 26 27 29 29 30 29 27 25 23 20 20 18
8 3 4 7 3 4 4 3 5 3 2 2 3 3 2 4 8 13 11 11 16 20 22 22 23 25 25 26 28 26 24 22 22 25 28 30 29 25 21 22 18 15 14 17
10 3 6 6 1 1 1 2 4 4 4 1 2 3 1 4 3 8 11 10 10 14 15 17 18 21 22 23 24 26 23 21 17 18 20 20 18 20 17 14 12 10 15 18
10 7 6 4 3 4 4 4 1 4 4 6 4 2 2 4 6 7 12 12 13 13 14 15 17 18 19 21 23 23 22 19 18 18 16 16 15 14 12 13 15 18 18 16
13 5 8 8 3 2 3 5 6 3 4 5 6 3 4 8 9 9 11 13 13 15 16 17 18 18 18 19 22 23 22 18 16 19 19 16 15 15 16 18 19 16 12 12
7 5 7 4 3 3 2 4 8 7 2 6 2 6 4 13 15 15 16 15 16 16 14 18 20 19 19 19 21 23 22 19 18 17 17 16 15 15 16 14 12 12 11 12
2 3 4 2 2 0 4 6 4 5 3 8 2 6 4 5 16 18 18 17 17 16 18 18 18 17 18 20 20 22 24 23 19 16 14 13 13 11 11 9 7 7 7 6
1 2 4 6 2 4 6 11 10 5 6 6 8 6 7 8 16 22 20 17 17 20 20 21 20 21 23 23 24 24 23 21 19 17 15 12 10 8 6 6 5 5 5 5
2 1 1 3 4 10 2 2 4 7 5 10 5 5 6 4 12 20 20 19 19 24 23 22 23 24 24 24 24 23 21 18 15 13 10 9 8 6 6 5 4 6 7 6
8 3 2 3 7 2 4 2 2 2 3 11 6 8 3 5 14 12 22 23 27 27 25 25 24 26 28 27 23 18 16 14 10 9 10 9 7 6 5 4 4 5 5 5
4 2 4 3 4 10 4 2 4 3 5 15 13 10 2 10 8 8 30 29 27 28 29 28 27 25 22 21 18 15 13 11 10 10 9 7 7 6 5 3 3 3 4 5
5 3 10 6 6 4 2 12 4 7 1 14 12 13 11 7 5 9 30 31 31 32 31 29 26 25 22 21 17 15 13 12 11 9 7 7 7 7 8 9 9 7 5 4
5 6 7 3 6 11 11 2 4 5 7 12 16 17 16 17 15 4 24 32 36 36 36 31 29 26 23 22 20 17 14 13 11 9 8 8 8 11 13 10 9 9 9 10
4 3 3 3 2 5 10 14 8 6 7 12 16 21 21 19 12 12 21 32 38 39 37 33 31 30 26 23 18 17 16 11 10 9 9 10 12 13 12 10 10 11 12 11
1 6 2 2 6 5 7 10 12 10 13 14 16 19 23 23 10 14 19 28 33 41 41 39 36 32 29 25 21 16 13 11 10 11 12 13 12 13 12 11 11 11 11 11
6 8 3 4 2 5 12 12 15 14 13 15 17 17 19 21 18 10 17 26 31 38 41 42 40 35 31 28 25 18 13 11 11 13 15 15 15 15 14 12 13 11 10 10
12 10 7 4 1 3 7 13 14 14 16 16 18 22 22 20 22 12 16 23 30 36 39 42 41 37 30 28 24 17 13 11 13 18 18 18 17 16 14 13 14 12 10 9
Wind_Direction
180 291 279 295 268 294 291 287 283 255 164 179 190 158 172 175 183 184 189 193 195 198 198 200 195 195 196 194 194 193 194 197 201 210 217 227 237 247 260 266 259 230 331 339
274 277 293 256 279 269 253 269 288 190 150 186 163 159 177 182 194 199 196 196 198 199 197 198 198 198 203 203 200 202 203 201 208 212 227 246 259 252 255 249 261 251 283 297
226 266 322 246 288 266 242 238 184 116 138 72 148 163 187 204 208 204 210 210 201 201 199 198 198 202 205 206 209 205 203 209 214 214 225 239 247 261 254 239 252 271 299 300
248 273 270 230 306 270 344 221 160 145 179 235 224 290 205 196 209 212 208 206 208 205 205 205 204 205 208 211 209 211 215 225 224 218 228 237 245 257 261 247 250 251 285 300
266 285 296 297 288 199 357 129 132 141 143 269 200 265 120 190 212 215 212 210 209 206 205 207 211 214 213 215 218 221 226 235 227 224 233 236 236 244 258 259 255 257 278 284
266 265 269 248 196 222 138 107 98 113 200 258 81 242 196 182 218 208 206 209 210 208 206 206 213 217 219 220 225 230 233 238 235 235 238 232 237 242 255 272 276 275 280 291
278 233 211 185 184 133 173 186 123 135 214 278 53 220 271 191 200 197 193 200 204 207 206 206 208 210 217 219 225 231 235 237 238 236 240 230 238 242 257 270 278 280 280 286
300 217 207 163 252 174 186 257 217 194 224 22 145 231 234 77 214 171 183 188 193 202 207 208 209 211 215 219 223 228 233 234 236 241 244 241 246 250 260 269 275 273 285 284
231 248 251 142 227 199 168 208 65 110 100 262 320 269 242 229 162 156 162 175 189 198 204 206 208 211 215 220 223 228 234 238 242 245 248 248 254 258 265 272 275 274 277 283
176 292 351 33 152 66 259 130 168 177 178 251 224 282 270 163 188 188 186 196 198 200 201 203 208 210 215 216 218 221 229 235 241 248 251 255 258 263 267 272 274 279 281 274
181 216 259 305 243 169 151 213 68 101 309 250 274 247 198 262 206 199 192 194 192 195 200 204 206 211 217 220 223 220 218 221 228 238 245 252 256 260 263 266 264 274 276 275
202 219 249 264 228 276 180 266 193 232 193 277 307 265 47 299 206 185 164 166 172 180 191 194 203 213 215 216 221 218 216 215 216 226 234 237 240 247 246 244 251 260 276 281
173 222 252 254 152 182 205 169 169 121 145 188 213 236 61 130 138 156 167 166 162 169 184 189 198 204 208 211 215 215 210 212 217 216 220 225 222 225 237 251 261 267 270 271
172 176 215 230 221 117 193 177 167 272 204 159 236 270 185 183 173 172 171 168 163 172 181 181 185 193 196 203 212 213 215 229 223 212 216 220 225 237 244 252 258 256 250 249
207 236 203 238 230 211 185 202 193 202 257 247 351 229 199 201 182 173 159 157 158 165 172 179 188 191 196 209 222 224 223 207 188 193 206 217 227 235 235 231 238 244 247 256
115 280 183 200 80 157 260 234 235 217 201 248 269 274 218 159 165 168 171 167 159 165 167 179 188 195 179 166 156 152 156 160 166 176 185 196 202 206 224 232 245 264 269 271
289 198 227 209 161 136 256 235 215 207 206 224 210 243 166 167 180 177 173 172 160 157 162 168 168 163 160 160 156 152 149 152 161 170 176 181 187 197 218 240 255 267 264 269
249 130 260 231 180 229 281 32 269 229 287 230 311 325 206 212 173 174 179 167 160 158 160 161 157 154 154 153 151 148 150 152 157 160 170 184 200 218 227 232 250 255 264 274
221 170 208 242 226 309 155 31 68 13 70 25 309 335 43 137 147 181 184 174 166 164 160 157 156 152 152 151 148 146 144 151 163 185 190 194 202 206 216 235 249 256 266 269
133 191 216 169 243 230 154 160 357 146 181 12 0 351 5 166 202 193 181 176 166 164 163 159 156 157 153 152 153 157 160 169 178 188 190 188 191 195 189 184 191 152 124 120
191 186 210 193 233 234 21 316 301 189 55 352 354 349 336 236 17 338 176 172 172 171 169 165 167 159 163 163 164 167 164 170 181 184 180 174 162 147 129 131 127 116 111 107
241 216 214 178 217 225 357 169 312 24 14 2 1 356 328 294 281 279 181 179 174 176 176 173 169 168 175 174 172 167 170 174 174 167 164 150 134 125 118 115 109 101 95 99
235 340 302 295 53 70 53 71 33 7 355 352 355 351 342 319 293 228 198 187 183 184 181 179 178 176 177 178 177 175 169 168 166 165 156 146 139 131 123 118 107 106 102 97
163 10 274 237 162 352 117 53 22 6 0 355 351 350 351 352 317 224 204 190 189 185 184 182 183 183 180 180 178 184 171 171 170 164 158 153 152 150 141 130 117 114 106 100
307 320 330 285 215 342 195 343 349 340 341 344 345 349 348 356 357 247 214 198 193 190 184 186 185 186 184 181 178 177 179 173 166 165 166 165 165 164 155 145 131 123 112 103
242 251 253 271 215 259 282 324 336 335 332 332 335 337 340 348 345 307 230 211 198 194 186 185 187 187 188 183 178 180 179 178 173 172 173 174 170 164 162 155 145 133 121 99